Terminal Aerodrome Forecast
Issued by NWS

Home | Current Version | Previous Version | Graphics & Text | Print | Product List | Glossary On
Versions: 1 2 3 4 5 6 7 8 9 10 11 12 13 14 15 16 17
000
FTUS43 KFGF 161100
TAFBJI
TAF
KBJI 161131Z 1612/1712 33017KT P6SM -SN OVC015
      TEMPO 1612/1615 5SM -SN
     FM161800 33010KT P6SM OVC015=

USA.gov is the U.S. government's official web portal to all federal, state and local government web resources and services.